EW1423 Weather Reports


Display with metric or nautical units.
time (UTC)temp
F
wind
direction
speed
MPH
gust
MPH
rain 1hr
in
rain 24hr
in
rain mn
in
humidity
%
barometer
mb
20260904205804 74 211 0.0 0.0 0.00 0.00 0.00 66 1015.5
20260904205305 73 314 0.0 2.0 0.00 0.00 0.00 69 1015.5
20260904204804 72 329 0.0 1.0 0.00 0.00 0.00 73 1015.5
20260904204303 71 331 0.0 0.0 0.00 0.00 0.00 75 1015.5
20260904203805 71 331 0.0 0.0 0.00 0.00 0.00 75 1015.5
20260904203304 72 331 0.0 0.0 0.00 0.00 0.00 75 1015.4
20260904202803 72 331 0.0 0.0 0.00 0.00 0.00 75 1015.4
20260904202306 72 331 0.0 0.0 0.00 0.00 0.00 74 1015.4
20260904201803 72 331 0.0 0.0 0.00 0.00 0.00 74 1015.4
20260904201304 73 331 0.0 0.0 0.00 0.00 0.00 72 1015.3
20260904200804 73 331 0.0 0.0 0.00 0.00 0.00 72 1015.3
20260904200304 73 331 0.0 0.0 0.00 0.00 0.00 71 1015.3
20260904195804 74 331 0.0 0.0 0.00 0.00 0.00 70 1015.3
20260904195305 74 331 0.0 0.0 0.00 0.00 0.00 69 1015.2
20260904194303 75 331 0.0 0.0 0.00 0.00 0.00 68 1015.2
20260904193804 76 331 0.0 0.0 0.00 0.00 0.00 66 1015.0
20260904192803 77 331 0.0 0.0 0.00 0.00 0.00 63 1015.0
20260904192306 78 331 0.0 0.0 0.00 0.00 0.00 61 1014.7
20260904191803 79 331 0.0 2.0 0.00 0.00 0.00 59 1014.7
20260904191304 79 322 0.0 1.0 0.00 0.00 0.00 58 1014.7
20260904190803 79 322 0.0 1.0 0.00 0.00 0.00 58 1014.7
20260904190304 80 322 0.0 1.0 0.00 0.00 0.00 58 1014.7
20260904185804 80 217 0.0 2.0 0.00 0.00 0.00 57 1014.7
20260904184803 79 291 0.0 2.0 0.00 0.00 0.00 58 1014.7
20260904184304 79 289 1.0 2.0 0.00 0.00 0.00 58 1014.7
20260904183804 79 254 0.0 0.0 0.00 0.00 0.00 58 1014.5
20260904182804 80 277 0.0 1.0 0.00 0.00 0.00 57 1014.5
20260904182306 81 277 0.0 2.0 0.00 0.00 0.00 55 1014.5
20260904181304 82 299 0.0 1.0 0.00 0.00 0.00 54 1014.4
20260904180804 82 240 0.0 1.0 0.00 0.00 0.00 54 1014.4
20260904180303 82 329 0.0 2.0 0.00 0.00 0.00 52 1014.1
20260904175804 83 315 0.0 2.0 0.00 0.00 0.00 52 1014.1
20260904175305 83 269 1.0 3.0 0.00 0.00 0.00 50 1014.1
20260904174804 83 287 1.0 3.0 0.00 0.00 0.00 51 1013.8
20260904174303 84 284 1.0 5.0 0.00 0.00 0.00 51 1013.8
20260904173804 84 309 1.0 2.0 0.00 0.00 0.00 51 1013.8
20260904173303 84 269 1.0 5.0 0.00 0.00 0.00 50 1013.8
20260904172804 85 7 1.0 5.0 0.00 0.00 0.00 50 1013.8
20260904172305 85 268 0.0 3.0 0.00 0.00 0.00 50 1013.8
20260904171804 85 307 1.0 5.0 0.00 0.00 0.00 50 1013.8
20260904171303 85 277 1.0 5.0 0.00 0.00 0.00 49 1013.8
20260904170803 86 276 1.0 5.0 0.00 0.00 0.00 48 1013.8
20260904170303 86 287 1.0 7.0 0.00 0.00 0.00 48 1013.8
20260904165804 86 306 2.0 12.0 0.00 0.00 0.00 47 1013.8
20260904164803 87 269 3.0 12.0 0.00 0.00 0.00 46 1013.8
20260904163804 88 250 3.0 10.0 0.00 0.00 0.00 44 1013.8
20260904163304 89 262 0.0 7.0 0.00 0.00 0.00 44 1013.8
20260904162803 89 331 1.0 5.0 0.00 0.00 0.00 44 1013.8
20260904162306 89 290 2.0 9.0 0.00 0.00 0.00 43 1013.8
20260904161804 89 269 2.0 8.0 0.00 0.00 0.00 42 1013.8
20260904161303 90 322 2.0 12.0 0.00 0.00 0.00 42 1013.8
20260904160804 90 294 1.0 9.0 0.00 0.00 0.00 43 1013.8
20260904160304 90 4 2.0 12.0 0.00 0.00 0.00 42 1013.7
20260904154804 91 302 3.0 9.0 0.00 0.00 0.00 40 1013.6
20260904154303 91 271 2.0 7.0 0.00 0.00 0.00 39 1013.8
20260904153803 92 344 0.0 3.0 0.00 0.00 0.00 40 1013.8
20260904153304 91 308 1.0 8.0 0.00 0.00 0.00 40 1013.8
20260904152804 91 329 1.0 9.0 0.00 0.00 0.00 39 1013.8
20260904151803 92 240 1.0 6.0 0.00 0.00 0.00 39 1013.8
20260904150804 92 277 2.0 7.0 0.00 0.00 0.00 39 1013.8
20260904145804 92 279 2.0 6.0 0.00 0.00 0.00 39 1013.7
20260904145306 92 322 1.0 7.0 0.00 0.00 0.00 38 1013.7
20260904144803 92 320 2.0 7.0 0.00 0.00 0.00 39 1014.2
20260904144304 92 1 4.0 10.0 0.00 0.00 0.00 38 1014.2
20260904143804 93 252 1.0 5.0 0.00 0.00 0.00 38 1014.2
20260904143303 93 266 0.0 3.0 0.00 0.00 0.00 38 1014.2
20260904142804 94 253 1.0 6.0 0.00 0.00 0.00 37 1014.2
20260904142306 93 253 0.0 2.0 0.00 0.00 0.00 40 1014.2
20260904141803 93 18 0.0 1.0 0.00 0.00 0.00 40 1014.2
20260904141303 92 322 2.0 8.0 0.00 0.00 0.00 39 1014.4
20260904140803 93 276 1.0 6.0 0.00 0.00 0.00 39 1014.4
20260904140304 93 294 0.0 1.0 0.00 0.00 0.00 39 1014.4
20260904135804 93 288 0.0 5.0 0.00 0.00 0.00 40 1014.4
20260904135306 92 266 0.0 2.0 0.00 0.00 0.00 39 1014.4
20260904134804 92 199 0.0 2.0 0.00 0.00 0.00 39 1014.4
20260904134303 92 295 0.0 3.0 0.00 0.00 0.00 41 1015.0
20260904133803 91 20 0.0 9.0 0.00 0.00 0.00 40 1015.0
20260904133304 92 321 2.0 6.0 0.00 0.00 0.00 40 1015.0
20260904132803 91 136 2.0 8.0 0.00 0.00 0.00 42 1015.0
20260904132306 91 143 2.0 7.0 0.00 0.00 0.00 42 1015.0
20260904131803 91 339 2.0 7.0 0.00 0.00 0.00 43 1015.0
20260904131303 91 315 1.0 8.0 0.00 0.00 0.00 41 1015.0
20260904130804 91 290 2.0 5.0 0.00 0.00 0.00 42 1015.0
20260904125803 90 354 0.0 3.0 0.00 0.00 0.00 47 1015.6
20260904125305 90 102 1.0 7.0 0.00 0.00 0.00 45 1015.6
20260904124803 90 235 2.0 8.0 0.00 0.00 0.00 43 1015.6
20260904124303 89 320 1.0 7.0 0.00 0.00 0.00 44 1015.6
20260904123803 89 280 0.0 5.0 0.00 0.00 0.00 45 1015.6
20260904123304 88 277 1.0 8.0 0.00 0.00 0.00 45 1016.2
20260904122306 88 262 1.0 5.0 0.00 0.00 0.00 46 1016.2
20260904121803 88 188 0.0 3.0 0.00 0.00 0.00 46 1016.2
20260904120804 88 308 0.0 5.0 0.00 0.00 0.00 47 1016.2
20260904115804 88 337 0.0 8.0 0.00 0.00 0.00 46 1017.1
20260904115306 88 269 1.0 6.0 0.00 0.00 0.00 48 1017.1
20260904114804 88 303 1.0 6.0 0.00 0.00 0.00 47 1017.1
20260904114304 88 287 1.0 7.0 0.00 0.00 0.00 47 1017.1
20260904113804 88 321 1.0 5.0 0.00 0.00 0.00 48 1017.1
20260904113304 87 343 1.0 5.0 0.00 0.00 0.00 48 1017.1
20260904112803 88 291 0.0 5.0 0.00 0.00 0.00 48 1017.1
20260904112306 87 2 1.0 8.0 0.00 0.00 0.00 49 1017.1
20260904111804 87 279 1.0 5.0 0.00 0.00 0.00 48 1017.1
20260904111303 87 311 1.0 10.0 0.00 0.00 0.00 49 1017.1
20260904110803 86 28 0.0 2.0 0.00 0.00 0.00 50 1017.1
20260904110304 86 358 1.0 9.0 0.00 0.00 0.00 49 1017.1
20260904105804 86 256 0.0 5.0 0.00 0.00 0.00 49 1017.1
20260904104303 87 304 1.0 5.0 0.00 0.00 0.00 50 1017.5
20260904103804 86 313 1.0 5.0 0.00 0.00 0.00 49 1017.5
20260904103303 86 277 0.0 2.0 0.00 0.00 0.00 51 1018.3
20260904102803 86 301 0.0 5.0 0.00 0.00 0.00 51 1018.3
20260904102306 86 108 0.0 3.0 0.00 0.00 0.00 52 1018.3
20260904101803 86 298 0.0 2.0 0.00 0.00 0.00 50 1018.3
20260904101304 85 259 0.0 6.0 0.00 0.00 0.00 52 1018.3
20260904100804 85 242 0.0 7.0 0.00 0.00 0.00 52 1018.3
20260904100304 85 264 0.0 2.0 0.00 0.00 0.00 52 1018.3
20260904095803 84 245 1.0 6.0 0.00 0.00 0.00 53 1018.3
20260904095306 84 347 1.0 2.0 0.00 0.00 0.00 54 1018.3
20260904094804 83 229 2.0 8.0 0.00 0.00 0.00 54 1018.3
20260904094303 83 331 2.0 8.0 0.00 0.00 0.00 54 1018.3
20260904093804 82 320 1.0 7.0 0.00 0.00 0.00 56 1018.9
20260904093303 82 301 2.0 6.0 0.00 0.00 0.00 55 1018.9
20260904092803 82 266 2.0 8.0 0.00 0.00 0.00 57 1018.9
20260904092306 81 293 1.0 6.0 0.00 0.00 0.00 59 1018.9
20260904091803 81 351 1.0 3.0 0.00 0.00 0.00 60 1018.9
20260904091304 80 69 0.0 5.0 0.00 0.00 0.00 61 1018.9
20260904090303 79 351 0.0 3.0 0.00 0.00 0.00 62 1018.9
20260904085804 79 314 1.0 5.0 0.00 0.00 0.00 61 1018.9
20260904085306 79 287 0.0 5.0 0.00 0.00 0.00 62 1018.9
20260904084803 79 325 0.0 6.0 0.00 0.00 0.00 62 1018.9
20260904084304 78 296 0.0 5.0 0.00 0.00 0.00 63 1018.9
20260904083804 77 260 0.0 1.0 0.00 0.00 0.00 64 1019.6
20260904082803 76 160 0.0 0.0 0.00 0.00 0.00 65 1019.6
20260904082305 75 160 0.0 0.0 0.00 0.00 0.00 65 1019.6
20260904081804 75 63 0.0 0.0 0.00 0.00 0.00 67 1019.6
20260904080804 74 173 0.0 1.0 0.00 0.00 0.00 67 1019.6
20260904075306 72 78 0.0 1.0 0.00 0.00 0.00 69 1019.6
20260904074803 72 163 0.0 1.0 0.00 0.00 0.00 70 1019.6
20260904074303 71 91 0.0 0.0 0.00 0.00 0.00 70 1019.7
20260904073804 71 54 0.0 1.0 0.00 0.00 0.00 72 1019.7
20260904073303 70 91 0.0 1.0 0.00 0.00 0.00 73 1019.7
20260904072804 70 107 0.0 0.0 0.00 0.00 0.00 74 1019.7
20260904072306 69 96 0.0 0.0 0.00 0.00 0.00 74 1020.1
20260904071804 69 98 0.0 0.0 0.00 0.00 0.00 74 1020.1
20260904070303 68 80 0.0 0.0 0.00 0.00 0.00 76 1020.1
20260904065803 67 80 0.0 0.0 0.00 0.00 0.00 78 1020.1
20260904064803 66 67 0.0 0.0 0.00 0.00 0.00 80 1020.1
20260904064304 65 84 0.0 0.0 0.00 0.00 0.00 80 1020.1
20260904063804 65 189 0.0 0.0 0.00 0.00 0.00 82 1020.1
20260904063304 64 189 0.0 0.0 0.00 0.00 0.00 82 1020.1
20260904062803 64 189 0.0 0.0 0.00 0.00 0.00 83 1020.2
20260904062306 64 158 0.0 1.0 0.00 0.00 0.00 83 1020.3
20260904061803 63 156 0.0 0.0 0.00 0.00 0.00 85 1020.3
20260904060804 62 156 0.0 0.0 0.00 0.00 0.00 87 1020.3
20260904055804 61 156 0.0 0.0 0.00 0.00 0.00 88 1020.3
20260904054803 60 156 0.0 0.0 0.00 0.00 0.00 89 1020.3
20260904054303 60 156 0.0 0.0 0.00 0.00 0.00 89 1020.3
20260904053804 59 156 0.0 0.0 0.00 0.00 0.00 91 1020.3
20260904053303 59 156 0.0 0.0 0.00 0.00 0.00 91 1020.3
20260904052804 59 156 0.0 0.0 0.00 0.00 0.00 91 1020.2
20260904052306 59 156 0.0 0.0 0.00 0.00 0.00 92 1020.2
20260904051804 59 156 0.0 0.0 0.00 0.00 0.00 93 1020.2
20260904051304 59 156 0.0 0.0 0.00 0.00 0.00 92 1020.2
20260904050804 59 156 0.0 0.0 0.00 0.00 0.00 92 1020.2
20260904050303 59 156 0.0 0.0 0.00 0.00 0.00 92 1020.2
20260904045803 59 156 0.0 0.0 0.00 0.00 0.00 92 1020.2
20260904045306 59 156 0.0 0.0 0.00 0.00 0.00 91 1020.2
20260904044804 59 156 0.0 0.0 0.00 0.00 0.00 92 1020.2
20260904043303 59 156 0.0 0.0 0.00 0.00 0.00 91 1020.2
20260904042803 59 156 0.0 0.0 0.00 0.00 0.00 91 1020.8
20260904042306 59 156 0.0 0.0 0.00 0.00 0.00 91 1020.8
20260904041803 59 156 0.0 0.0 0.00 0.00 0.00 90 1020.8
20260904041304 60 156 0.0 0.0 0.00 0.00 0.00 89 1020.8
20260904040804 60 156 0.0 0.0 0.00 0.00 0.00 88 1020.8
20260904040303 61 156 0.0 0.0 0.00 0.00 0.00 87 1020.8
20260904035803 61 156 0.0 0.0 0.00 0.00 0.00 86 1020.8
20260904035306 61 156 0.0 0.0 0.00 0.00 0.00 86 1020.8
20260904034803 61 156 0.0 0.0 0.00 0.00 0.00 86 1020.8
20260904034304 61 156 0.0 0.0 0.00 0.00 0.00 87 1020.8
20260904033803 61 156 0.0 0.0 0.00 0.00 0.00 87 1020.8
20260904033303 61 156 0.0 0.0 0.00 0.00 0.00 86 1020.8
20260904032803 61 156 0.0 0.0 0.00 0.00 0.00 86 1020.8
20260904032305 61 156 0.0 0.0 0.00 0.00 0.00 86 1020.9
20260904031303 61 170 0.0 0.0 0.00 0.00 0.00 87 1020.9
20260904030804 61 171 0.0 0.0 0.00 0.00 0.00 87 1021.2
20260904030304 61 200 0.0 0.0 0.00 0.00 0.00 86 1021.2
20260904025803 61 200 0.0 0.0 0.00 0.00 0.00 86 1021.2
20260904025306 61 227 0.0 0.0 0.00 0.00 0.00 87 1021.2
20260904024803 61 227 0.0 0.0 0.00 0.00 0.00 87 1021.2
20260904024303 61 227 0.0 0.0 0.00 0.00 0.00 88 1021.2
20260904023304 61 227 0.0 0.0 0.00 0.00 0.00 88 1021.3
20260904022804 60 227 0.0 0.0 0.00 0.00 0.00 90 1021.3
20260904022306 60 227 0.0 0.0 0.00 0.00 0.00 90 1021.3
20260904021804 60 227 0.0 0.0 0.00 0.00 0.00 91 1021.3
20260904021304 60 227 0.0 0.0 0.00 0.00 0.00 90 1021.3
20260904020804 60 227 0.0 0.0 0.00 0.00 0.00 90 1021.3
20260904020303 60 227 0.0 0.0 0.00 0.00 0.00 90 1021.3
20260904015804 60 227 0.0 0.0 0.00 0.00 0.00 90 1021.3
20260904015306 60 227 0.0 0.0 0.00 0.00 0.00 89 1021.3
20260904014803 60 227 0.0 0.0 0.00 0.00 0.00 89 1021.3
20260904014304 60 227 0.0 0.0 0.00 0.00 0.00 88 1021.3
20260904013804 60 227 0.0 0.0 0.00 0.00 0.00 88 1021.3
20260904013304 61 227 0.0 0.0 0.00 0.00 0.00 88 1021.3
20260904011803 60 263 0.0 0.0 0.00 0.00 0.00 90 1021.3
20260904010804 61 263 0.0 0.0 0.00 0.00 0.00 89 1021.3
20260904010304 61 263 0.0 0.0 0.00 0.00 0.00 88 1021.3
20260904005803 61 263 0.0 0.0 0.00 0.00 0.00 87 1021.6
20260904005306 61 263 0.0 0.0 0.00 0.00 0.00 87 1021.6
20260904004804 61 263 0.0 0.0 0.00 0.00 0.00 88 1021.6
20260904004303 61 263 0.0 0.0 0.00 0.00 0.00 88 1021.6
20260904002804 61 263 0.0 0.0 0.00 0.00 0.00 88 1021.6
20260904001804 61 263 0.0 0.0 0.00 0.00 0.00 89 1021.8
20260904000803 61 263 0.0 0.0 0.00 0.00 0.00 88 1021.8
20260904000304 61 263 0.0 0.0 0.00 0.00 0.00 88 1021.9
20260903235804 62 263 0.0 0.0 0.00 0.00 0.00 87 1021.9
20260903235305 62 263 0.0 0.0 0.00 0.00 0.00 87 1021.9
20260903234304 62 263 0.0 0.0 0.00 0.00 0.00 86 1022.0
20260903233804 62 263 0.0 0.0 0.00 0.00 0.00 86 1022.0
20260903232804 63 263 0.0 0.0 0.00 0.00 0.00 85 1022.0
20260903232306 63 263 0.0 0.0 0.00 0.00 0.00 84 1022.0
20260903231804 63 263 0.0 0.0 0.00 0.00 0.00 84 1022.0
20260903231303 64 263 0.0 0.0 0.00 0.00 0.00 83 1021.7
20260903230803 64 263 0.0 0.0 0.00 0.00 0.00 82 1021.7
20260903225804 64 263 0.0 0.0 0.00 0.00 0.00 80 1021.7
20260903225306 64 263 0.0 0.0 0.00 0.00 0.00 81 1021.7
20260903224804 64 294 0.0 0.0 0.00 0.00 0.00 82 1021.7
20260903224303 64 298 0.0 0.0 0.00 0.00 0.00 82 1021.7
20260903223804 63 298 0.0 0.0 0.00 0.00 0.00 83 1021.7
20260903222803 63 298 0.0 0.0 0.00 0.00 0.00 84 1021.7
20260903222305 63 298 0.0 0.0 0.00 0.00 0.00 84 1021.7
20260903221804 63 298 0.0 0.0 0.00 0.00 0.00 83 1021.7
20260903221303 63 298 0.0 0.0 0.00 0.00 0.00 83 1021.7
20260903220810 63 298 0.0 0.0 0.00 0.00 0.00 84 1021.7
20260903220304 62 298 0.0 0.0 0.00 0.00 0.00 85 1021.7
20260903215803 62 298 0.0 0.0 0.00 0.00 0.00 85 1021.7
20260903215306 63 298 0.0 0.0 0.00 0.00 0.00 85 1021.7
20260903214804 63 298 0.0 0.0 0.00 0.00 0.00 85 1021.7
20260903214304 63 298 0.0 0.0 0.00 0.00 0.00 84 1021.7
20260903213804 63 298 0.0 0.0 0.00 0.00 0.00 83 1021.7
20260903213304 63 298 0.0 0.0 0.00 0.00 0.00 83 1021.7
20260903212306 63 298 0.0 0.0 0.00 0.00 0.00 84 1021.7
20260903211804 63 298 0.0 0.0 0.00 0.00 0.00 84 1021.7
20260903210804 64 298 0.0 0.0 0.00 0.00 0.00 84 1021.7